Retour au catalogue

DELTA 1 DEB

ActifSSO
NORAD 18469·DEBRIS·🇺🇸 United States

Lancé Mar 5, 1978 depuis Vandenberg Space Force Base

Loading…

Prochains Passages (prochaines 24 heures)

TLE

FraisSource: Space-Track

Époque: Sep 13, 2026, 03:13 UTC

1 18469U 78026HF  26256.13409935  .00000247  00000-0  20360-3 0  9993
2 18469  98.9041 202.8469 0045353 316.7675  55.3949 13.97804196117874

Suivez DELTA 1 DEB en temps réel avec AllMySat

Download on the App Store